Manchester, NH

9:50 PM EDT on May 27, 2018 (GMT -0400)
Manchester

Weather History for KMHT - July, 2013

Change the Weather History Date:

Friday, July 19, 2013

  Actual Average Record
Temperature  
Mean Temperature 85 °F 73 °F  
Max Temperature 97 °F 83 °F 93 °F (2008)
Min Temperature 73 °F 63 °F 48 °F (1890)
Degree Days  
Heating Degree Days 0 0  
Month to date heating degree days 0  
Since 1 June heating degree days 58  
Since 1 July heating degree days 0  
Cooling Degree Days 20 8  
Month to date cooling degree days 144  
Year to date cooling degree days 294  
Since 1 June cooling degree days 264  
Growing Degree Days 35 (Base 50)    
Moisture  
Dew Point 72 °F    
Average Humidity 66    
Maximum Humidity 94    
Minimum Humidity 40    
Precipitation  
Precipitation 0.00 in 0.13 in 1.77 in (1945)
Month to date precipitation 2.22  
Year to date precipitation 24.05  
Snow  
Snow 0.00 in - - ()
Month to date snowfall  
Since 1 July snowfall  
Snow Depth -    
Sea Level Pressure  
Sea Level Pressure 29.82 in    
Wind  
Wind Speed 5 mph (SW)    
Max Wind Speed 15 mph    
Max Gust Speed 23 mph    
Visibility 10 miles    
Events      
T = Trace of Precipitation, MM = Missing Value Source: NWS Daily Summary

Daily Weather History Graph

Daily Weather History Graph

Search for Another Location

Airport or City:

Astronomy

Jul. 19, 2013 Rise Set
Actual Time 5:24 AM EDT 8:19 PM EDT
Civil Twilight 4:50 AM EDT 8:52 PM EDT
Nautical Twilight 4:07 AM EDT 9:35 PM EDT
Astronomical Twilight 3:17 AM EDT 10:25 PM EDT
Moon 5:18 PM EDT (7/19) 2:03 AM EDT (7/19)
Length of Visible Light 16h 02m
Length of Day
14h 55m
Waxing Gibbous, 86% of the Moon is Illuminated
Jul 19
Waxing Gibbous
Jul 22
Full
Jul 29
Last Quarter
Aug 6
New
Aug 14
First Quarter

Hourly Weather History & Observations

Time (EDT) Temp. Heat Index Dew Point Humidity Pressure Visibility Wind Dir Wind Speed Gust Speed Precip Events Conditions
12:53 AM 75.2 °F - 71.6 °F 89% 29.95 in 10.0 mi Calm Calm - N/A   Scattered Clouds
1:53 AM 75.2 °F - 71.6 °F 89% 29.94 in 10.0 mi South 3.5 mph - N/A   Partly Cloudy
2:53 AM 73.4 °F - 71.6 °F 94% 29.93 in 10.0 mi Calm Calm - N/A   Clear
3:53 AM 73.4 °F - 71.6 °F 94% 29.92 in 10.0 mi SSW 3.5 mph - N/A   Clear
4:53 AM 73.4 °F - 71.6 °F 94% 29.91 in 10.0 mi Calm Calm - N/A   Clear
5:53 AM 73.4 °F - 71.6 °F 94% 29.91 in 10.0 mi SSW 3.5 mph - N/A   Clear
6:53 AM 75.2 °F - 71.6 °F 89% 29.90 in 10.0 mi Calm Calm - N/A   Clear
7:53 AM 78.8 °F - 71.6 °F 78% 29.89 in 10.0 mi SW 4.6 mph - N/A   Clear
8:53 AM 82.4 °F 88.2 °F 73.4 °F 74% 29.88 in 10.0 mi SW 6.9 mph - N/A   Clear
9:53 AM 86.0 °F 93.4 °F 73.4 °F 66% 29.87 in 10.0 mi WSW 9.2 mph - N/A   Clear
10:53 AM 89.6 °F 96.2 °F 71.6 °F 55% 29.86 in 10.0 mi West 11.5 mph 18.4 mph N/A   Clear
11:53 AM 91.4 °F 96.8 °F 69.8 °F 49% 29.84 in 10.0 mi West 9.2 mph - N/A   Clear
12:53 PM 93.2 °F 97.7 °F 68.0 °F 44% 29.81 in 10.0 mi West 11.5 mph 20.7 mph N/A   Partly Cloudy
1:53 PM 96.1 °F 101.6 °F 69.1 °F 41% 29.78 in 10.0 mi SW 13.8 mph 21.9 mph N/A   Partly Cloudy
2:53 PM 96.1 °F 101.6 °F 69.1 °F 41% 29.76 in 10.0 mi WSW 15.0 mph 23.0 mph N/A   Partly Cloudy
3:53 PM 97.0 °F 102.8 °F 69.1 °F 40% 29.73 in 10.0 mi SW 12.7 mph 19.6 mph N/A   Partly Cloudy
4:53 PM 96.1 °F 103.5 °F 71.1 °F 44% 29.71 in 10.0 mi SW 11.5 mph - N/A   Partly Cloudy
5:53 PM 95.0 °F 103.2 °F 72.0 °F 47% 29.71 in 10.0 mi Variable 6.9 mph - N/A   Scattered Clouds
6:53 PM 91.9 °F 100.7 °F 73.0 °F 54% 29.70 in 10.0 mi SSW 11.5 mph - N/A   Partly Cloudy
7:53 PM 90.0 °F 97.9 °F 73.0 °F 57% 29.72 in 10.0 mi SSW 6.9 mph - N/A   Partly Cloudy
8:53 PM 89.1 °F 97.0 °F 73.0 °F 59% 29.73 in 10.0 mi SSW 6.9 mph - N/A   Partly Cloudy
9:53 PM 87.1 °F 94.5 °F 73.0 °F 63% 29.74 in 10.0 mi SSW 4.6 mph - N/A   Clear
10:53 PM 86.0 °F 93.0 °F 73.0 °F 65% 29.74 in 10.0 mi SSW 6.9 mph - N/A   Clear
11:53 PM 84.0 °F 90.2 °F 73.0 °F 69% 29.75 in 10.0 mi SSW 6.9 mph - N/A   Partly Cloudy